Location: Squirrel Cove
(50.1074°N, 124.9139°W)
Time: 14:00:56
(UTC-07:00)

PCSat - Pass Details

Date: 28 May 2022
Orbit: 784 x 795 km, 67.1° (Epoch: 26 June)

Event Time Altitude Azimuth Distance (km) Brightness Sun altitude
Rises 01:04:13 0° 325° (NW) 3,307 13.8 -18.4°
Reaches altitude 10° 01:06:49 10° 333° (NNW) 2,374 13.0 -18.4°
Maximum altitude 01:11:54 38° 41° (NE) 1,193 10.9 -18.4°
Drops below altitude 10° 01:16:57 10° 110° (ESE) 2,362 11.8 -18.4°
Enters shadow 01:18:32 - 116° (ESE) 2,925 12.3 -18.4°
